Time,TemperatureF,DewpointF,PressureIn,WindDirection,WindDirectionDegrees,WindSpeedMPH,WindSpeedGustMPH,Humidity,HourlyPrecipIn,Conditions,Clouds,dailyrainin,SoftwareType,DateUTC
2013-02-19 00:00:00,-15.1,-20.4,30.74,NNW,342,0.0,1.0,76,0.00,,,0.00,LWC V2.10 B1813,2013-02-19 09:00:00,
2013-02-19 00:05:00,-15.7,-21.0,30.74,NNW,342,0.0,1.0,76,0.00,,,0.00,LWC V2.10 B1813,2013-02-19 09:05:00,
2013-02-19 00:10:00,-16.5,-22.0,30.74,NNW,342,0.0,1.0,75,0.00,,,0.00,LWC V2.10 B1813,2013-02-19 09:10:00,
2013-02-19 00:15:00,-17.0,-22.3,30.74,NNW,342,0.0,0.0,76,0.00,,,0.00,LWC V2.10 B1813,2013-02-19 09:15:00,
2013-02-19 00:20:00,-17.3,-22.5,30.74,NNW,342,0.0,0.0,76,0.00,,,0.00,LWC V2.10 B1813,2013-02-19 09:20:00,
2013-02-19 00:25:00,-17.3,-22.3,30.74,NNW,342,0.0,0.0,77,0.00,,,0.00,LWC V2.10 B1813,2013-02-19 09:25:00,
2013-02-19 00:30:00,-17.2,-22.0,30.74,NNW,342,0.0,1.0,78,0.00,,,0.00,LWC V2.10 B1813,2013-02-19 09:30:00,
2013-02-19 00:35:00,-17.0,-22.0,30.74,NNW,342,0.0,1.0,77,0.00,,,0.00,LWC V2.10 B1813,2013-02-19 09:35:00,
2013-02-19 00:40:00,-16.7,-21.5,30.74,NNW,342,0.0,2.0,78,0.00,,,0.00,LWC V2.10 B1813,2013-02-19 09:40:00,
2013-02-19 00:45:00,-16.8,-22.1,30.74,NNW,342,0.0,2.0,76,0.00,,,0.00,LWC V2.10 B1813,2013-02-19 09:45:00,
2013-02-19 00:50:00,-17.0,-22.3,30.74,NNW,342,0.0,1.0,76,0.00,,,0.00,LWC V2.10 B1813,2013-02-19 09:50:00,
2013-02-19 00:55:00,-17.2,-22.5,30.74,NNW,342,1.0,3.0,76,0.00,,,0.00,LWC V2.10 B1813,2013-02-19 09:55:00,
2013-02-19 01:00:00,-17.2,-22.2,30.73,NNW,342,1.0,2.0,77,0.00,,,0.00,LWC V2.10 B1813,2013-02-19 10:00:00,
2013-02-19 01:05:00,-17.2,-22.2,30.73,NNW,342,2.0,3.0,77,0.00,,,0.00,LWC V2.10 B1813,2013-02-19 10:05:00,
2013-02-19 01:10:00,-17.1,-22.1,30.73,NNW,342,0.0,1.0,77,0.00,,,0.00,LWC V2.10 B1813,2013-02-19 10:10:00,
2013-02-19 01:15:00,-16.8,-21.8,30.73,East,88,2.0,3.0,77,0.00,,,0.00,LWC V2.10 B1813,2013-02-19 10:15:00,
2013-02-19 01:20:00,-16.7,-22.0,30.73,SSE,159,4.0,4.0,76,0.00,,,0.00,LWC V2.10 B1813,2013-02-19 10:20:00,
2013-02-19 01:25:00,-16.7,-21.7,30.73,South,190,1.0,3.0,77,0.00,,,0.00,LWC V2.10 B1813,2013-02-19 10:25:00,
2013-02-19 01:30:00,-16.9,-22.2,30.73,South,190,0.0,0.0,76,0.00,,,0.00,LWC V2.10 B1813,2013-02-19 10:30:00,
2013-02-19 01:35:00,-16.9,-21.9,30.72,NNE,12,0.0,1.0,77,0.00,,,0.00,LWC V2.10 B1813,2013-02-19 10:35:00,
2013-02-19 01:40:00,-16.7,-21.7,30.72,NNE,13,0.0,0.0,77,0.00,,,0.00,LWC V2.10 B1813,2013-02-19 10:40:00,
2013-02-19 01:45:00,-16.5,-21.5,30.72,NNE,13,0.0,0.0,77,0.00,,,0.00,LWC V2.10 B1813,2013-02-19 10:45:00,
2013-02-19 01:50:00,-16.3,-21.3,30.72,North,11,0.0,1.0,77,0.00,,,0.00,LWC V2.10 B1813,2013-02-19 10:50:00,
2013-02-19 01:55:00,-16.0,-21.0,30.72,East,91,2.0,3.0,77,0.00,,,0.00,LWC V2.10 B1813,2013-02-19 10:55:00,
2013-02-19 02:00:00,-16.1,-21.4,30.72,ESE,123,2.0,3.0,76,0.00,,,0.00,LWC V2.10 B1813,2013-02-19 11:00:00,
2013-02-19 02:05:00,-16.7,-22.5,30.73,East,101,2.0,4.0,74,0.00,,,0.00,LWC V2.10 B1813,2013-02-19 11:05:00,
2013-02-19 02:10:00,-17.7,-23.7,30.73,East,99,2.0,3.0,73,0.00,,,0.00,LWC V2.10 B1813,2013-02-19 11:10:00,
2013-02-19 02:15:00,-18.3,-24.0,30.73,East,101,2.0,3.0,74,0.00,,,0.00,LWC V2.10 B1813,2013-02-19 11:15:00,
2013-02-19 02:20:00,-18.4,-23.9,30.73,East,101,0.0,1.0,75,0.00,,,0.00,LWC V2.10 B1813,2013-02-19 11:20:00,
2013-02-19 02:25:00,-18.3,-23.5,30.73,NE,40,2.0,3.0,76,0.00,,,0.00,LWC V2.10 B1813,2013-02-19 11:25:00,
2013-02-19 02:30:00,-18.1,-23.3,30.73,NNE,18,0.0,1.0,76,0.00,,,0.00,LWC V2.10 B1813,2013-02-19 11:30:00,
2013-02-19 02:35:00,-17.9,-22.9,30.73,NE,55,0.0,2.0,77,0.00,,,0.00,LWC V2.10 B1813,2013-02-19 11:35:00,
2013-02-19 02:40:00,-18.1,-23.3,30.73,East,80,2.0,3.0,76,0.00,,,0.00,LWC V2.10 B1813,2013-02-19 11:40:00,
2013-02-19 02:45:00,-18.3,-23.8,30.73,East,80,2.0,3.0,75,0.00,,,0.00,LWC V2.10 B1813,2013-02-19 11:45:00,
2013-02-19 02:50:00,-18.3,-23.5,30.73,NE,54,4.0,4.0,76,0.00,,,0.00,LWC V2.10 B1813,2013-02-19 11:50:00,
2013-02-19 02:55:00,-18.1,-23.3,30.73,NE,53,1.0,2.0,76,0.00,,,0.00,LWC V2.10 B1813,2013-02-19 11:55:00,
2013-02-19 03:00:00,-18.1,-23.6,30.73,ENE,68,2.0,2.0,75,0.00,,,0.00,LWC V2.10 B1813,2013-02-19 12:00:00,
2013-02-19 03:05:00,-18.2,-23.7,30.72,ENE,73,1.0,3.0,75,0.00,,,0.00,LWC V2.10 B1813,2013-02-19 12:05:00,
2013-02-19 03:10:00,-18.3,-23.8,30.72,ENE,59,2.0,5.0,75,0.00,,,0.00,LWC V2.10 B1813,2013-02-19 12:10:00,
2013-02-19 03:15:00,-18.3,-23.8,30.72,NE,53,3.0,4.0,75,0.00,,,0.00,LWC V2.10 B1813,2013-02-19 12:15:00,
2013-02-19 03:20:00,-18.1,-23.3,30.72,NE,42,2.0,3.0,76,0.00,,,0.00,LWC V2.10 B1813,2013-02-19 12:20:00,
2013-02-19 03:25:00,-18.0,-23.2,30.72,NE,55,1.0,4.0,76,0.00,,,0.00,LWC V2.10 B1813,2013-02-19 12:25:00,
2013-02-19 03:30:00,-17.6,-23.1,30.71,ENE,64,3.0,6.0,75,0.00,,,0.00,LWC V2.10 B1813,2013-02-19 12:30:00,
2013-02-19 03:35:00,-17.1,-22.6,30.71,NE,53,2.0,4.0,75,0.00,,,0.00,LWC V2.10 B1813,2013-02-19 12:35:00,
2013-02-19 03:40:00,-17.0,-22.5,30.71,NE,55,1.0,3.0,75,0.00,,,0.00,LWC V2.10 B1813,2013-02-19 12:40:00,
2013-02-19 03:45:00,-17.0,-22.5,30.71,NE,55,1.0,3.0,75,0.00,,,0.00,LWC V2.10 B1813,2013-02-19 12:45:00,
2013-02-19 03:50:00,-17.1,-22.9,30.71,NE,55,1.0,3.0,74,0.00,,,0.00,LWC V2.10 B1813,2013-02-19 12:50:00,
2013-02-19 03:55:00,-17.3,-23.0,30.71,NE,53,0.0,1.0,74,0.00,,,0.00,LWC V2.10 B1813,2013-02-19 12:55:00,
2013-02-19 04:00:00,-17.4,-22.9,30.71,NE,54,1.0,2.0,75,0.00,,,0.00,LWC V2.10 B1813,2013-02-19 13:00:00,
2013-02-19 04:05:00,-17.5,-23.0,30.71,ENE,63,1.0,1.0,75,0.00,,,0.00,LWC V2.10 B1813,2013-02-19 13:05:00,
2013-02-19 04:10:00,-17.6,-23.1,30.71,ENE,63,1.0,1.0,75,0.00,,,0.00,LWC V2.10 B1813,2013-02-19 13:10:00,
2013-02-19 04:15:00,-17.6,-23.1,30.70,NE,52,0.0,2.0,75,0.00,,,0.00,LWC V2.10 B1813,2013-02-19 13:15:00,
2013-02-19 04:20:00,-17.6,-23.1,30.69,NE,34,2.0,2.0,75,0.00,,,0.00,LWC V2.10 B1813,2013-02-19 13:20:00,
2013-02-19 04:25:00,-17.5,-22.7,30.69,NNE,25,1.0,2.0,76,0.00,,,0.00,LWC V2.10 B1813,2013-02-19 13:25:00,
2013-02-19 04:30:00,-17.4,-22.6,30.69,NNE,24,0.0,0.0,76,0.00,,,0.00,LWC V2.10 B1813,2013-02-19 13:30:00,
2013-02-19 04:35:00,-17.1,-22.4,30.69,NNE,24,1.0,2.0,76,0.00,,,0.00,LWC V2.10 B1813,2013-02-19 13:35:00,
2013-02-19 04:40:00,-17.1,-22.6,30.69,East,85,2.0,3.0,75,0.00,,,0.00,LWC V2.10 B1813,2013-02-19 13:40:00,
2013-02-19 04:45:00,-17.2,-22.7,30.69,East,83,2.0,3.0,75,0.00,,,0.00,LWC V2.10 B1813,2013-02-19 13:45:00,
2013-02-19 04:50:00,-17.4,-23.1,30.69,ENE,58,3.0,5.0,74,0.00,,,0.00,LWC V2.10 B1813,2013-02-19 13:50:00,
2013-02-19 04:55:00,-17.5,-23.2,30.68,ENE,60,3.0,3.0,74,0.00,,,0.00,LWC V2.10 B1813,2013-02-19 13:55:00,
2013-02-19 05:00:00,-17.5,-23.2,30.68,ENE,60,0.0,0.0,74,0.00,,,0.00,LWC V2.10 B1813,2013-02-19 14:00:00,
2013-02-19 05:05:00,-17.5,-23.0,30.68,ENE,59,1.0,1.0,75,0.00,,,0.00,LWC V2.10 B1813,2013-02-19 14:05:00,
2013-02-19 05:10:00,-17.6,-23.1,30.68,ENE,59,0.0,2.0,75,0.00,,,0.00,LWC V2.10 B1813,2013-02-19 14:10:00,
2013-02-19 05:15:00,-17.7,-23.4,30.68,ENE,59,0.0,0.0,74,0.00,,,0.00,LWC V2.10 B1813,2013-02-19 14:15:00,
2013-02-19 05:20:00,-18.0,-23.7,30.68,ENE,59,0.0,0.0,74,0.00,,,0.00,LWC V2.10 B1813,2013-02-19 14:20:00,
2013-02-19 05:25:00,-18.1,-23.8,30.68,ENE,59,0.0,0.0,74,0.00,,,0.00,LWC V2.10 B1813,2013-02-19 14:25:00,
2013-02-19 05:30:00,-18.2,-23.7,30.67,ENE,59,0.0,0.0,75,0.00,,,0.00,LWC V2.10 B1813,2013-02-19 14:30:00,
2013-02-19 05:35:00,-18.5,-24.2,30.67,ENE,60,0.0,0.0,74,0.00,,,0.00,LWC V2.10 B1813,2013-02-19 14:35:00,
2013-02-19 05:40:00,-18.6,-24.1,30.67,ENE,60,0.0,2.0,75,0.00,,,0.00,LWC V2.10 B1813,2013-02-19 14:40:00,
2013-02-19 05:45:00,-18.5,-23.7,30.67,ENE,59,0.0,1.0,76,0.00,,,0.00,LWC V2.10 B1813,2013-02-19 14:45:00,
2013-02-19 05:50:00,-18.3,-23.5,30.67,ENE,59,0.0,1.0,76,0.00,,,0.00,LWC V2.10 B1813,2013-02-19 14:50:00,
2013-02-19 05:55:00,-18.3,-23.5,30.66,NE,42,2.0,3.0,76,0.00,,,0.00,LWC V2.10 B1813,2013-02-19 14:55:00,
2013-02-19 06:00:00,-18.4,-23.6,30.66,NE,44,0.0,2.0,76,0.00,,,0.00,LWC V2.10 B1813,2013-02-19 15:00:00,
2013-02-19 06:05:00,-18.0,-23.2,30.66,NE,42,2.0,2.0,76,0.00,,,0.00,LWC V2.10 B1813,2013-02-19 15:05:00,
2013-02-19 06:10:00,-17.8,-23.0,30.65,NE,42,0.0,1.0,76,0.00,,,0.00,LWC V2.10 B1813,2013-02-19 15:10:00,
2013-02-19 06:15:00,-17.6,-22.8,30.65,NE,43,0.0,0.0,76,0.00,,,0.00,LWC V2.10 B1813,2013-02-19 15:15:00,
2013-02-19 06:20:00,-17.5,-22.7,30.65,NE,44,0.0,0.0,76,0.00,,,0.00,LWC V2.10 B1813,2013-02-19 15:20:00,
2013-02-19 06:25:00,-17.5,-22.7,30.64,NE,47,3.0,3.0,76,0.00,,,0.00,LWC V2.10 B1813,2013-02-19 15:25:00,
2013-02-19 06:30:00,-17.4,-22.6,30.65,ENE,59,2.0,3.0,76,0.00,,,0.00,LWC V2.10 B1813,2013-02-19 15:30:00,
2013-02-19 06:35:00,-17.3,-22.8,30.65,ENE,61,0.0,0.0,75,0.00,,,0.00,LWC V2.10 B1813,2013-02-19 15:35:00,
2013-02-19 06:40:00,-17.3,-22.8,30.65,ENE,61,0.0,1.0,75,0.00,,,0.00,LWC V2.10 B1813,2013-02-19 15:40:00,
2013-02-19 06:45:00,-17.5,-23.2,30.65,ENE,60,0.0,1.0,74,0.00,,,0.00,LWC V2.10 B1813,2013-02-19 15:45:00,
2013-02-19 06:50:00,-17.7,-23.4,30.64,ENE,61,0.0,2.0,74,0.00,,,0.00,LWC V2.10 B1813,2013-02-19 15:50:00,
2013-02-19 06:55:00,-18.0,-23.7,30.64,North,355,1.0,2.0,74,0.00,,,0.00,LWC V2.10 B1813,2013-02-19 15:55:00,
2013-02-19 07:00:00,-18.1,-23.6,30.64,North,355,0.0,1.0,75,0.00,,,0.00,LWC V2.10 B1813,2013-02-19 16:00:00,
2013-02-19 07:05:00,-17.9,-23.1,30.64,North,355,1.0,2.0,76,0.00,,,0.00,LWC V2.10 B1813,2013-02-19 16:05:00,
2013-02-19 07:10:00,-17.8,-23.0,30.64,North,355,0.0,1.0,76,0.00,,,0.00,LWC V2.10 B1813,2013-02-19 16:10:00,
2013-02-19 07:15:00,-17.7,-23.2,30.64,North,355,0.0,3.0,75,0.00,,,0.00,LWC V2.10 B1813,2013-02-19 16:15:00,
2013-02-19 07:20:00,-17.3,-22.5,30.63,NE,49,3.0,5.0,76,0.00,,,0.00,LWC V2.10 B1813,2013-02-19 16:20:00,
2013-02-19 07:25:00,-16.2,-21.7,30.63,NE,41,2.0,8.0,75,0.00,,,0.00,LWC V2.10 B1813,2013-02-19 16:25:00,
2013-02-19 07:30:00,-15.4,-21.2,30.63,ENE,68,4.0,4.0,74,0.00,,,0.00,LWC V2.10 B1813,2013-02-19 16:30:00,
2013-02-19 07:35:00,-15.2,-21.3,30.63,ENE,78,1.0,3.0,73,0.00,,,0.00,LWC V2.10 B1813,2013-02-19 16:35:00,
2013-02-19 07:40:00,-15.3,-21.6,30.63,North,0,2.0,4.0,72,0.00,,,0.00,LWC V2.10 B1813,2013-02-19 16:40:00,
2013-02-19 07:45:00,-15.6,-21.9,30.63,North,5,1.0,1.0,72,0.00,,,0.00,LWC V2.10 B1813,2013-02-19 16:45:00,
2013-02-19 07:50:00,-15.9,-22.2,30.63,North,0,1.0,2.0,72,0.00,,,0.00,LWC V2.10 B1813,2013-02-19 16:50:00,
2013-02-19 07:55:00,-16.3,-22.6,30.63,East,83,3.0,3.0,72,0.00,,,0.00,LWC V2.10 B1813,2013-02-19 16:55:00,
2013-02-19 08:00:00,-17.1,-23.4,30.63,ESE,109,2.0,3.0,72,0.00,,,0.00,LWC V2.10 B1813,2013-02-19 17:00:00,
2013-02-19 08:05:00,-17.8,-24.0,30.63,SSE,154,2.0,4.0,72,0.00,,,0.00,LWC V2.10 B1813,2013-02-19 17:05:00,
2013-02-19 08:10:00,-18.3,-24.5,30.63,SSE,156,1.0,2.0,72,0.00,,,0.00,LWC V2.10 B1813,2013-02-19 17:10:00,
2013-02-19 08:15:00,-18.7,-24.7,30.63,SSE,155,1.0,2.0,73,0.00,,,0.00,LWC V2.10 B1813,2013-02-19 17:15:00,
2013-02-19 08:20:00,-18.8,-24.5,30.62,NE,37,2.0,3.0,74,0.00,,,0.00,LWC V2.10 B1813,2013-02-19 17:20:00,
2013-02-19 08:25:00,-18.7,-24.4,30.61,North,5,1.0,3.0,74,0.00,,,0.00,LWC V2.10 B1813,2013-02-19 17:25:00,
2013-02-19 08:30:00,-18.7,-24.2,30.60,North,0,2.0,3.0,75,0.00,,,0.00,LWC V2.10 B1813,2013-02-19 17:30:00,
2013-02-19 08:35:00,-18.5,-24.0,30.60,NW,326,1.0,4.0,75,0.00,,,0.00,LWC V2.10 B1813,2013-02-19 17:35:00,
2013-02-19 08:40:00,-18.4,-23.9,30.60,NW,325,2.0,3.0,75,0.00,,,0.00,LWC V2.10 B1813,2013-02-19 17:40:00,
2013-02-19 08:45:00,-18.1,-23.3,30.60,NW,325,2.0,2.0,76,0.00,,,0.00,LWC V2.10 B1813,2013-02-19 17:45:00,
2013-02-19 08:50:00,-17.9,-23.1,30.59,NNW,342,1.0,3.0,76,0.00,,,0.00,LWC V2.10 B1813,2013-02-19 17:50:00,
2013-02-19 08:55:00,-17.7,-22.9,30.59,East,98,1.0,3.0,76,0.00,,,0.00,LWC V2.10 B1813,2013-02-19 17:55:00,
2013-02-19 09:00:00,-17.4,-22.6,30.58,NNE,26,1.0,3.0,76,0.00,,,0.00,LWC V2.10 B1813,2013-02-19 18:00:00,
2013-02-19 09:05:00,-16.9,-22.2,30.58,NNE,19,0.0,3.0,76,0.00,,,0.00,LWC V2.10 B1813,2013-02-19 18:05:00,
2013-02-19 09:10:00,-16.5,-21.8,30.58,NNE,20,0.0,0.0,76,0.00,,,0.00,LWC V2.10 B1813,2013-02-19 18:10:00,
2013-02-19 09:15:00,-16.1,-21.4,30.58,NE,40,2.0,3.0,76,0.00,,,0.00,LWC V2.10 B1813,2013-02-19 18:15:00,
2013-02-19 09:20:00,-15.2,-20.5,30.58,ENE,57,2.0,4.0,76,0.00,,,0.00,LWC V2.10 B1813,2013-02-19 18:20:00,
2013-02-19 09:25:00,-14.5,-20.1,30.58,ENE,57,1.0,2.0,75,0.00,,,0.00,LWC V2.10 B1813,2013-02-19 18:25:00,
2013-02-19 09:30:00,-14.1,-19.9,30.58,East,89,1.0,1.0,74,0.00,,,0.00,LWC V2.10 B1813,2013-02-19 18:30:00,
2013-02-19 09:35:00,-13.9,-19.8,30.57,ESE,110,0.0,3.0,74,0.00,,,0.00,LWC V2.10 B1813,2013-02-19 18:35:00,
2013-02-19 09:40:00,-13.6,-19.7,30.57,ESE,111,0.0,1.0,73,0.00,,,0.00,LWC V2.10 B1813,2013-02-19 18:40:00,
2013-02-19 09:45:00,-13.2,-19.1,30.57,ESE,111,1.0,1.0,74,0.00,,,0.00,LWC V2.10 B1813,2013-02-19 18:45:00,
2013-02-19 09:50:00,-12.9,-19.0,30.57,ESE,110,2.0,3.0,73,0.00,,,0.00,LWC V2.10 B1813,2013-02-19 18:50:00,
2013-02-19 09:55:00,-12.7,-19.1,30.56,ESE,110,0.0,2.0,72,0.00,,,0.00,LWC V2.10 B1813,2013-02-19 18:55:00,
2013-02-19 10:00:00,-12.6,-19.0,30.56,ESE,110,0.0,1.0,72,0.00,,,0.00,LWC V2.10 B1813,2013-02-19 19:00:00,
2013-02-19 10:05:00,-12.4,-18.8,30.56,ESE,111,0.0,0.0,72,0.00,,,0.00,LWC V2.10 B1813,2013-02-19 19:05:00,
2013-02-19 10:10:00,-12.0,-18.4,30.56,ESE,110,0.0,1.0,72,0.00,,,0.00,LWC V2.10 B1813,2013-02-19 19:10:00,
2013-02-19 10:15:00,-11.6,-18.1,30.55,ESE,111,0.0,0.0,72,0.00,,,0.00,LWC V2.10 B1813,2013-02-19 19:15:00,
2013-02-19 10:20:00,-11.1,-17.6,30.55,ESE,111,0.0,1.0,72,0.00,,,0.00,LWC V2.10 B1813,2013-02-19 19:20:00,
2013-02-19 10:21:00,-11.0,-17.2,30.55,ESE,110,0.0,1.0,73,0.00,,,0.00,LWC V2.10 B1813,2013-02-19 19:21:00,
2013-02-19 10:26:00,-10.4,-16.9,30.55,SE,130,0.0,2.0,72,0.00,,,0.00,LWC V2.10 B1813,2013-02-19 19:26:00,
2013-02-19 10:31:00,-10.0,-17.1,30.54,SE,129,0.0,0.0,70,0.00,,,0.00,LWC V2.10 B1813,2013-02-19 19:31:00,
2013-02-19 10:36:00,-9.8,-17.1,30.54,NE,48,2.0,3.0,69,0.00,,,0.00,LWC V2.10 B1813,2013-02-19 19:36:00,
2013-02-19 10:41:00,-10.1,-17.4,30.54,NE,49,0.0,1.0,69,0.00,,,0.00,LWC V2.10 B1813,2013-02-19 19:41:00,
2013-02-19 10:46:00,-9.9,-17.2,30.53,NNE,24,1.0,3.0,69,0.00,,,0.00,LWC V2.10 B1813,2013-02-19 19:46:00,
2013-02-19 10:51:00,-9.8,-17.1,30.53,NE,49,1.0,1.0,69,0.00,,,0.00,LWC V2.10 B1813,2013-02-19 19:51:00,
2013-02-19 10:56:00,-9.4,-16.8,30.53,ENE,63,1.0,2.0,69,0.00,,,0.00,LWC V2.10 B1813,2013-02-19 19:56:00,
2013-02-19 11:01:00,-8.8,-16.2,30.53,ENE,62,1.0,2.0,69,0.00,,,0.00,LWC V2.10 B1813,2013-02-19 20:01:00,
2013-02-19 11:06:00,-8.1,-15.5,30.52,ENE,63,0.0,1.0,69,0.00,,,0.00,LWC V2.10 B1813,2013-02-19 20:06:00,
2013-02-19 11:11:00,-7.5,-15.5,30.53,ENE,61,0.0,1.0,67,0.00,,,0.00,LWC V2.10 B1813,2013-02-19 20:11:00,
2013-02-19 11:16:00,-7.7,-16.3,30.52,East,90,5.0,7.0,65,0.00,,,0.00,LWC V2.10 B1813,2013-02-19 20:16:00,
2013-02-19 11:21:00,-7.9,-16.2,30.52,ENE,73,3.0,3.0,66,0.00,,,0.00,LWC V2.10 B1813,2013-02-19 20:21:00,
2013-02-19 11:26:00,-7.9,-16.2,30.52,NE,49,2.0,5.0,66,0.00,,,0.00,LWC V2.10 B1813,2013-02-19 20:26:00,
2013-02-19 11:31:00,-7.7,-15.7,30.51,NE,44,4.0,6.0,67,0.00,,,0.00,LWC V2.10 B1813,2013-02-19 20:31:00,
2013-02-19 11:36:00,-7.3,-15.6,30.52,East,85,3.0,6.0,66,0.00,,,0.00,LWC V2.10 B1813,2013-02-19 20:36:00,
2013-02-19 11:41:00,-7.0,-15.3,30.52,ENE,65,1.0,3.0,66,0.00,,,0.00,LWC V2.10 B1813,2013-02-19 20:41:00,
2013-02-19 11:46:00,-6.8,-15.4,30.52,East,79,2.0,3.0,65,0.00,,,0.00,LWC V2.10 B1813,2013-02-19 20:46:00,
2013-02-19 11:51:00,-6.8,-15.4,30.51,ENE,74,1.0,2.0,65,0.00,,,0.00,LWC V2.10 B1813,2013-02-19 20:51:00,
2013-02-19 11:56:00,-6.8,-15.4,30.51,East,91,3.0,4.0,65,0.00,,,0.00,LWC V2.10 B1813,2013-02-19 20:56:00,
2013-02-19 12:01:00,-6.8,-15.4,30.51,East,98,1.0,5.0,65,0.00,,,0.00,LWC V2.10 B1813,2013-02-19 21:01:00,
2013-02-19 12:06:00,-6.7,-15.3,30.51,East,101,2.0,3.0,65,0.00,,,0.00,LWC V2.10 B1813,2013-02-19 21:06:00,
2013-02-19 12:11:00,-6.8,-15.4,30.51,NE,45,3.0,5.0,65,0.00,,,0.00,LWC V2.10 B1813,2013-02-19 21:11:00,
2013-02-19 12:16:00,-6.5,-14.8,30.50,NE,46,0.0,0.0,66,0.00,,,0.00,LWC V2.10 B1813,2013-02-19 21:16:00,
2013-02-19 12:21:00,-6.1,-14.5,30.50,NE,46,0.0,1.0,66,0.00,,,0.00,LWC V2.10 B1813,2013-02-19 21:21:00,
2013-02-19 12:26:00,-5.4,-13.2,30.50,NE,41,0.0,2.0,68,0.00,,,0.00,LWC V2.10 B1813,2013-02-19 21:26:00,
2013-02-19 12:31:00,-4.6,-13.3,30.50,ENE,71,0.0,2.0,65,0.00,,,0.00,LWC V2.10 B1813,2013-02-19 21:31:00,
2013-02-19 12:36:00,-4.1,-12.8,30.49,NNE,19,2.0,2.0,65,0.00,,,0.00,LWC V2.10 B1813,2013-02-19 21:36:00,
2013-02-19 12:41:00,-3.7,-13.4,30.49,NNE,14,0.0,1.0,62,0.00,,,0.00,LWC V2.10 B1813,2013-02-19 21:41:00,
2013-02-19 12:46:00,-4.0,-13.7,30.49,NNE,15,0.0,0.0,62,0.00,,,0.00,LWC V2.10 B1813,2013-02-19 21:46:00,
2013-02-19 12:51:00,-4.4,-13.8,30.49,NE,49,0.0,3.0,63,0.00,,,0.00,LWC V2.10 B1813,2013-02-19 21:51:00,
2013-02-19 12:56:00,-4.8,-13.8,30.48,ESE,119,4.0,4.0,64,0.00,,,0.00,LWC V2.10 B1813,2013-02-19 21:56:00,
2013-02-19 13:01:00,-5.2,-13.9,30.48,East,80,3.0,3.0,65,0.00,,,0.00,LWC V2.10 B1813,2013-02-19 22:01:00,
2013-02-19 13:06:00,-5.4,-14.1,30.48,ENE,63,3.0,6.0,65,0.00,,,0.00,LWC V2.10 B1813,2013-02-19 22:06:00,
2013-02-19 13:11:00,-5.0,-13.4,30.47,NE,49,2.0,4.0,66,0.00,,,0.00,LWC V2.10 B1813,2013-02-19 22:11:00,
2013-02-19 13:16:00,-4.8,-13.5,30.47,NNE,32,2.0,3.0,65,0.00,,,0.00,LWC V2.10 B1813,2013-02-19 22:16:00,
2013-02-19 13:21:00,-4.2,-12.6,30.47,NE,37,1.0,3.0,66,0.00,,,0.00,LWC V2.10 B1813,2013-02-19 22:21:00,
2013-02-19 13:26:00,-3.6,-12.1,30.47,NE,36,0.0,1.0,66,0.00,,,0.00,LWC V2.10 B1813,2013-02-19 22:26:00,
2013-02-19 13:31:00,-3.3,-12.4,30.46,NNE,29,2.0,7.0,64,0.00,,,0.00,LWC V2.10 B1813,2013-02-19 22:31:00,
2013-02-19 13:36:00,-2.9,-12.0,30.46,NNW,337,1.0,3.0,64,0.00,,,0.00,LWC V2.10 B1813,2013-02-19 22:36:00,
2013-02-19 13:41:00,-2.8,-12.2,30.46,NE,37,4.0,10.0,63,0.00,,,0.00,LWC V2.10 B1813,2013-02-19 22:41:00,
2013-02-19 13:46:00,-2.8,-12.5,30.46,ENE,61,4.0,7.0,62,0.00,,,0.00,LWC V2.10 B1813,2013-02-19 22:46:00,
2013-02-19 13:51:00,-2.7,-12.5,30.46,NE,38,0.0,3.0,62,0.00,,,0.00,LWC V2.10 B1813,2013-02-19 22:51:00,
2013-02-19 13:56:00,-2.5,-12.3,30.46,East,85,0.0,3.0,62,0.00,,,0.00,LWC V2.10 B1813,2013-02-19 22:56:00,
2013-02-19 14:01:00,-2.6,-11.7,30.45,NE,41,1.0,5.0,64,0.00,,,0.00,LWC V2.10 B1813,2013-02-19 23:01:00,
2013-02-19 14:06:00,-2.6,-11.1,30.45,North,355,0.0,2.0,66,0.00,,,0.00,LWC V2.10 B1813,2013-02-19 23:06:00,
2013-02-19 14:11:00,-2.7,-11.8,30.45,ENE,59,1.0,3.0,64,0.00,,,0.00,LWC V2.10 B1813,2013-02-19 23:11:00,
2013-02-19 14:16:00,-2.6,-11.7,30.44,NE,49,5.0,7.0,64,0.00,,,0.00,LWC V2.10 B1813,2013-02-19 23:16:00,
2013-02-19 14:21:00,-2.6,-12.0,30.44,NNE,28,5.0,7.0,63,0.00,,,0.00,LWC V2.10 B1813,2013-02-19 23:21:00,
2013-02-19 14:26:00,-2.5,-11.9,30.43,North,5,3.0,4.0,63,0.00,,,0.00,LWC V2.10 B1813,2013-02-19 23:26:00,
2013-02-19 14:31:00,-2.4,-12.2,30.43,NE,38,5.0,9.0,62,0.00,,,0.00,LWC V2.10 B1813,2013-02-19 23:31:00,
2013-02-19 14:36:00,-2.5,-12.3,30.43,NE,40,6.0,7.0,62,0.00,,,0.00,LWC V2.10 B1813,2013-02-19 23:36:00,
2013-02-19 14:41:00,-2.7,-12.5,30.43,NE,36,6.0,8.0,62,0.00,,,0.00,LWC V2.10 B1813,2013-02-19 23:41:00,
2013-02-19 14:46:00,-2.6,-12.0,30.42,NNE,24,6.0,9.0,63,0.00,,,0.00,LWC V2.10 B1813,2013-02-19 23:46:00,
2013-02-19 14:51:00,-2.5,-12.3,30.42,NNE,26,4.0,5.0,62,0.00,,,0.00,LWC V2.10 B1813,2013-02-19 23:51:00,
2013-02-19 14:56:00,-2.5,-11.9,30.42,NE,39,3.0,8.0,63,0.00,,,0.00,LWC V2.10 B1813,2013-02-19 23:56:00,
2013-02-19 15:01:00,-2.4,-11.8,30.42,ENE,57,8.0,8.0,63,0.00,,,0.00,LWC V2.10 B1813,2013-02-20 00:01:00,
2013-02-19 15:06:00,-2.4,-11.8,30.41,NE,48,4.0,8.0,63,0.00,,,0.00,LWC V2.10 B1813,2013-02-20 00:06:00,
2013-02-19 15:11:00,-2.4,-11.8,30.41,NE,46,6.0,9.0,63,0.00,,,0.00,LWC V2.10 B1813,2013-02-20 00:11:00,
2013-02-19 15:16:00,-2.3,-11.4,30.41,North,350,5.0,9.0,64,0.00,,,0.00,LWC V2.10 B1813,2013-02-20 00:16:00,
2013-02-19 15:21:00,-2.2,-11.7,30.40,NNE,17,4.0,4.0,63,0.00,,,0.00,LWC V2.10 B1813,2013-02-20 00:21:00,
2013-02-19 15:26:00,-2.2,-11.3,30.40,North,0,4.0,8.0,64,0.00,,,0.00,LWC V2.10 B1813,2013-02-20 00:26:00,
2013-02-19 15:31:00,-2.2,-11.3,30.40,NNW,340,3.0,4.0,64,0.00,,,0.00,LWC V2.10 B1813,2013-02-20 00:31:00,
2013-02-19 15:36:00,-2.2,-11.7,30.39,North,0,3.0,7.0,63,0.00,,,0.00,LWC V2.10 B1813,2013-02-20 00:36:00,
2013-02-19 15:41:00,-2.2,-11.7,30.39,NNE,26,5.0,8.0,63,0.00,,,0.00,LWC V2.10 B1813,2013-02-20 00:41:00,
2013-02-19 15:46:00,-2.2,-11.7,30.38,NNE,23,6.0,10.0,63,0.00,,,0.00,LWC V2.10 B1813,2013-02-20 00:46:00,
2013-02-19 15:51:00,-2.1,-11.6,30.38,North,0,6.0,7.0,63,0.00,,,0.00,LWC V2.10 B1813,2013-02-20 00:51:00,
2013-02-19 15:56:00,-2.2,-11.7,30.38,North,9,8.0,13.0,63,0.00,,,0.00,LWC V2.10 B1813,2013-02-20 00:56:00,
2013-02-19 16:01:00,-2.2,-11.7,30.37,North,0,8.0,11.0,63,0.00,,,0.00,LWC V2.10 B1813,2013-02-20 01:01:00,
2013-02-19 16:06:00,-2.3,-11.8,30.37,North,355,2.0,18.0,63,0.00,,,0.00,LWC V2.10 B1813,2013-02-20 01:06:00,
2013-02-19 16:11:00,-2.3,-11.8,30.37,NNE,25,3.0,10.0,63,0.00,,,0.00,LWC V2.10 B1813,2013-02-20 01:11:00,
2013-02-19 16:16:00,-2.4,-11.8,30.37,NNE,22,5.0,10.0,63,0.00,,,0.00,LWC V2.10 B1813,2013-02-20 01:16:00,
2013-02-19 16:21:00,-2.5,-11.9,30.36,North,0,5.0,10.0,63,0.00,,,0.00,LWC V2.10 B1813,2013-02-20 01:21:00,
2013-02-19 16:26:00,-2.6,-12.0,30.36,NE,52,10.0,11.0,63,0.00,,,0.00,LWC V2.10 B1813,2013-02-20 01:26:00,
2013-02-19 16:31:00,-2.8,-12.2,30.36,NNE,14,7.0,14.0,63,0.00,,,0.00,LWC V2.10 B1813,2013-02-20 01:31:00,
2013-02-19 16:36:00,-3.0,-12.1,30.35,North,5,4.0,10.0,64,0.00,,,0.00,LWC V2.10 B1813,2013-02-20 01:36:00,
2013-02-19 16:41:00,-3.1,-12.2,30.35,NNE,31,6.0,8.0,64,0.00,,,0.00,LWC V2.10 B1813,2013-02-20 01:41:00,
2013-02-19 16:46:00,-3.3,-12.4,30.35,NNE,30,1.0,13.0,64,0.00,,,0.00,LWC V2.10 B1813,2013-02-20 01:46:00,
2013-02-19 16:51:00,-3.6,-12.7,30.35,NNE,22,5.0,13.0,64,0.00,,,0.00,LWC V2.10 B1813,2013-02-20 01:51:00,
2013-02-19 16:56:00,-3.8,-12.9,30.35,NE,44,3.0,11.0,64,0.00,,,0.00,LWC V2.10 B1813,2013-02-20 01:56:00,
2013-02-19 17:01:00,-3.9,-12.7,30.35,NE,38,5.0,10.0,65,0.00,,,0.00,LWC V2.10 B1813,2013-02-20 02:01:00,
2013-02-19 17:06:00,-4.0,-13.1,30.34,North,355,5.0,11.0,64,0.00,,,0.00,LWC V2.10 B1813,2013-02-20 02:06:00,
2013-02-19 17:11:00,-4.1,-13.2,30.34,NE,43,11.0,13.0,64,0.00,,,0.00,LWC V2.10 B1813,2013-02-20 02:11:00,
2013-02-19 17:16:00,-4.2,-12.9,30.34,NNE,26,11.0,12.0,65,0.00,,,0.00,LWC V2.10 B1813,2013-02-20 02:16:00,
2013-02-19 17:21:00,-4.2,-12.9,30.33,NNE,22,6.0,10.0,65,0.00,,,0.00,LWC V2.10 B1813,2013-02-20 02:21:00,
2013-02-19 17:26:00,-4.3,-13.0,30.33,North,10,12.0,12.0,65,0.00,,,0.00,LWC V2.10 B1813,2013-02-20 02:26:00,
2013-02-19 17:31:00,-4.4,-13.1,30.33,NE,54,7.0,14.0,65,0.00,,,0.00,LWC V2.10 B1813,2013-02-20 02:31:00,
2013-02-19 17:36:00,-4.5,-13.2,30.32,NE,46,3.0,15.0,65,0.00,,,0.00,LWC V2.10 B1813,2013-02-20 02:36:00,
2013-02-19 17:41:00,-4.5,-13.2,30.32,NNE,18,6.0,11.0,65,0.00,,,0.00,LWC V2.10 B1813,2013-02-20 02:41:00,
2013-02-19 17:46:00,-4.5,-13.2,30.31,ENE,74,7.0,16.0,65,0.00,,,0.00,LWC V2.10 B1813,2013-02-20 02:46:00,
2013-02-19 17:51:00,-4.5,-13.2,30.32,ENE,75,7.0,9.0,65,0.00,,,0.00,LWC V2.10 B1813,2013-02-20 02:51:00,
2013-02-19 17:56:00,-4.5,-13.2,30.31,NNE,14,12.0,12.0,65,0.00,,,0.00,LWC V2.10 B1813,2013-02-20 02:56:00,
2013-02-19 18:01:00,-4.5,-13.2,30.31,NNE,27,9.0,14.0,65,0.00,,,0.00,LWC V2.10 B1813,2013-02-20 03:01:00,
2013-02-19 18:06:00,-4.5,-13.5,30.31,NNE,18,14.0,14.0,64,0.00,,,0.00,LWC V2.10 B1813,2013-02-20 03:06:00,
2013-02-19 18:11:00,-4.6,-13.6,30.31,NE,46,7.0,12.0,64,0.00,,,0.00,LWC V2.10 B1813,2013-02-20 03:11:00,
2013-02-19 18:16:00,-4.6,-13.6,30.31,NE,46,9.0,13.0,64,0.00,,,0.00,LWC V2.10 B1813,2013-02-20 03:16:00,
2013-02-19 18:21:00,-4.7,-13.4,30.30,North,355,12.0,13.0,65,0.00,,,0.00,LWC V2.10 B1813,2013-02-20 03:21:00,
2013-02-19 18:26:00,-4.7,-13.4,30.30,NE,37,9.0,13.0,65,0.00,,,0.00,LWC V2.10 B1813,2013-02-20 03:26:00,
2013-02-19 18:31:00,-4.7,-13.7,30.30,NE,44,11.0,14.0,64,0.00,,,0.00,LWC V2.10 B1813,2013-02-20 03:31:00,
2013-02-19 18:36:00,-4.8,-13.8,30.30,NE,48,13.0,15.0,64,0.00,,,0.00,LWC V2.10 B1813,2013-02-20 03:36:00,
2013-02-19 18:41:00,-4.8,-13.8,30.30,NNE,24,11.0,15.0,64,0.00,,,0.00,LWC V2.10 B1813,2013-02-20 03:41:00,
2013-02-19 18:46:00,-4.8,-13.8,30.29,NNE,30,9.0,17.0,64,0.00,,,0.00,LWC V2.10 B1813,2013-02-20 03:46:00,
2013-02-19 18:51:00,-4.8,-13.5,30.29,ENE,60,7.0,14.0,65,0.00,,,0.00,LWC V2.10 B1813,2013-02-20 03:51:00,
2013-02-19 18:56:00,-4.8,-13.8,30.29,NE,34,5.0,13.0,64,0.00,,,0.00,LWC V2.10 B1813,2013-02-20 03:56:00,
2013-02-19 19:01:00,-5.1,-14.1,30.29,ENE,59,8.0,10.0,64,0.00,,,0.00,LWC V2.10 B1813,2013-02-20 04:01:00,
2013-02-19 19:06:00,-5.3,-14.0,30.29,ENE,65,7.0,9.0,65,0.00,,,0.00,LWC V2.10 B1813,2013-02-20 04:06:00,
2013-02-19 19:11:00,-5.4,-14.1,30.28,NNW,336,5.0,8.0,65,0.00,,,0.00,LWC V2.10 B1813,2013-02-20 04:11:00,
2013-02-19 19:16:00,-5.5,-13.9,30.28,NNE,19,5.0,12.0,66,0.00,,,0.00,LWC V2.10 B1813,2013-02-20 04:16:00,
2013-02-19 19:21:00,-5.5,-14.2,30.28,NNE,24,3.0,11.0,65,0.00,,,0.00,LWC V2.10 B1813,2013-02-20 04:21:00,
2013-02-19 19:26:00,-5.6,-14.3,30.28,NE,40,4.0,8.0,65,0.00,,,0.00,LWC V2.10 B1813,2013-02-20 04:26:00,
2013-02-19 19:31:00,-5.7,-14.1,30.28,NE,37,2.0,7.0,66,0.00,,,0.00,LWC V2.10 B1813,2013-02-20 04:31:00,
2013-02-19 19:36:00,-5.9,-14.3,30.28,NE,50,6.0,10.0,66,0.00,,,0.00,LWC V2.10 B1813,2013-02-20 04:36:00,
2013-02-19 19:41:00,-6.1,-14.5,30.27,NE,44,6.0,6.0,66,0.00,,,0.00,LWC V2.10 B1813,2013-02-20 04:41:00,
2013-02-19 19:46:00,-6.2,-14.6,30.27,NE,49,6.0,10.0,66,0.00,,,0.00,LWC V2.10 B1813,2013-02-20 04:46:00,
2013-02-19 19:51:00,-6.2,-14.3,30.27,NE,34,7.0,8.0,67,0.00,,,0.00,LWC V2.10 B1813,2013-02-20 04:51:00,
2013-02-19 19:56:00,-5.9,-14.0,30.27,NE,41,7.0,10.0,67,0.00,,,0.00,LWC V2.10 B1813,2013-02-20 04:56:00,
2013-02-19 20:00:00,-5.7,-14.1,30.26,NE,51,7.0,9.0,66,0.00,,,0.00,LWC V2.10 B1813,2013-02-20 05:00:00,
2013-02-19 20:05:00,-5.7,-14.1,30.26,NNE,33,9.0,9.0,66,0.00,,,0.00,LWC V2.10 B1813,2013-02-20 05:05:00,
2013-02-19 20:10:00,-5.8,-14.2,30.26,NNE,19,4.0,12.0,66,0.00,,,0.00,LWC V2.10 B1813,2013-02-20 05:10:00,
2013-02-19 20:15:00,-5.8,-14.2,30.26,NE,45,10.0,10.0,66,0.00,,,0.00,LWC V2.10 B1813,2013-02-20 05:15:00,
2013-02-19 20:20:00,-5.7,-14.1,30.25,NE,44,4.0,7.0,66,0.00,,,0.00,LWC V2.10 B1813,2013-02-20 05:20:00,
2013-02-19 20:25:00,-5.7,-13.8,30.25,North,0,2.0,12.0,67,0.00,,,0.00,LWC V2.10 B1813,2013-02-20 05:25:00,
2013-02-19 20:30:00,-5.7,-14.1,30.25,NNE,18,5.0,9.0,66,0.00,,,0.00,LWC V2.10 B1813,2013-02-20 05:30:00,
2013-02-19 20:35:00,-5.7,-14.1,30.25,NNE,22,6.0,9.0,66,0.00,,,0.00,LWC V2.10 B1813,2013-02-20 05:35:00,
2013-02-19 20:40:00,-5.7,-14.1,30.24,NNE,13,7.0,9.0,66,0.00,,,0.00,LWC V2.10 B1813,2013-02-20 05:40:00,
2013-02-19 20:45:00,-5.7,-14.1,30.24,NNE,26,6.0,11.0,66,0.00,,,0.00,LWC V2.10 B1813,2013-02-20 05:45:00,
2013-02-19 20:50:00,-5.7,-14.1,30.24,NE,39,10.0,10.0,66,0.00,,,0.00,LWC V2.10 B1813,2013-02-20 05:50:00,
2013-02-19 20:55:00,-5.8,-14.2,30.23,NNE,22,4.0,12.0,66,0.00,,,0.00,LWC V2.10 B1813,2013-02-20 05:55:00,
2013-02-19 21:00:00,-5.7,-14.1,30.23,NE,48,10.0,14.0,66,0.00,,,0.00,LWC V2.10 B1813,2013-02-20 06:00:00,
2013-02-19 21:05:00,-5.6,-14.0,30.23,North,0,8.0,13.0,66,0.00,,,0.00,LWC V2.10 B1813,2013-02-20 06:05:00,
2013-02-19 21:10:00,-5.6,-14.0,30.23,NNE,32,8.0,9.0,66,0.00,,,0.00,LWC V2.10 B1813,2013-02-20 06:10:00,
2013-02-19 21:15:00,-5.5,-13.9,30.23,NE,53,5.0,13.0,66,0.00,,,0.00,LWC V2.10 B1813,2013-02-20 06:15:00,
2013-02-19 21:20:00,-5.5,-13.9,30.23,NNE,29,8.0,12.0,66,0.00,,,0.00,LWC V2.10 B1813,2013-02-20 06:20:00,
2013-02-19 21:25:00,-5.5,-13.9,30.22,North,5,6.0,11.0,66,0.00,,,0.00,LWC V2.10 B1813,2013-02-20 06:25:00,
2013-02-19 21:30:00,-5.5,-13.9,30.22,NNE,14,3.0,7.0,66,0.00,,,0.00,LWC V2.10 B1813,2013-02-20 06:30:00,
2013-02-19 21:35:00,-5.5,-13.9,30.22,NNE,28,8.0,8.0,66,0.00,,,0.00,LWC V2.10 B1813,2013-02-20 06:35:00,
2013-02-19 21:40:00,-5.4,-13.8,30.22,NE,37,6.0,8.0,66,0.00,,,0.00,LWC V2.10 B1813,2013-02-20 06:40:00,
2013-02-19 21:45:00,-5.3,-13.7,30.22,NNE,17,7.0,10.0,66,0.00,,,0.00,LWC V2.10 B1813,2013-02-20 06:45:00,
2013-02-19 21:50:00,-5.3,-13.7,30.22,NNE,26,3.0,6.0,66,0.00,,,0.00,LWC V2.10 B1813,2013-02-20 06:50:00,
2013-02-19 21:55:00,-5.4,-13.8,30.22,ENE,67,7.0,7.0,66,0.00,,,0.00,LWC V2.10 B1813,2013-02-20 06:55:00,
2013-02-19 22:00:00,-5.7,-14.4,30.22,NNE,28,4.0,5.0,65,0.00,,,0.00,LWC V2.10 B1813,2013-02-20 07:00:00,
2013-02-19 22:05:00,-6.1,-14.5,30.21,NNE,20,3.0,7.0,66,0.00,,,0.00,LWC V2.10 B1813,2013-02-20 07:05:00,
2013-02-19 22:10:00,-6.2,-14.3,30.21,North,9,0.0,3.0,67,0.00,,,0.00,LWC V2.10 B1813,2013-02-20 07:10:00,
2013-02-19 22:15:00,-6.5,-14.5,30.21,NNW,345,0.0,2.0,67,0.00,,,0.00,LWC V2.10 B1813,2013-02-20 07:15:00,
2013-02-19 22:20:00,-6.7,-14.4,30.21,NNE,21,3.0,3.0,68,0.00,,,0.00,LWC V2.10 B1813,2013-02-20 07:20:00,
2013-02-19 22:25:00,-7.0,-15.0,30.21,ENE,57,1.0,2.0,67,0.00,,,0.00,LWC V2.10 B1813,2013-02-20 07:25:00,
2013-02-19 22:30:00,-7.0,-14.7,30.21,ENE,67,7.0,7.0,68,0.00,,,0.00,LWC V2.10 B1813,2013-02-20 07:30:00,
2013-02-19 22:35:00,-6.7,-14.4,30.21,NE,38,5.0,5.0,68,0.00,,,0.00,LWC V2.10 B1813,2013-02-20 07:35:00,
2013-02-19 22:40:00,-6.5,-14.5,30.20,East,82,6.0,6.0,67,0.00,,,0.00,LWC V2.10 B1813,2013-02-20 07:40:00,
2013-02-19 22:45:00,-6.5,-14.5,30.20,NE,48,3.0,7.0,67,0.00,,,0.00,LWC V2.10 B1813,2013-02-20 07:45:00,
2013-02-19 22:50:00,-6.5,-14.5,30.20,North,11,3.0,7.0,67,0.00,,,0.00,LWC V2.10 B1813,2013-02-20 07:50:00,
2013-02-19 22:55:00,-6.4,-14.2,30.20,North,355,3.0,5.0,68,0.00,,,0.00,LWC V2.10 B1813,2013-02-20 07:55:00,
2013-02-19 23:00:00,-6.3,-14.1,30.19,North,355,3.0,8.0,68,0.00,,,0.00,LWC V2.10 B1813,2013-02-20 08:00:00,
2013-02-19 23:05:00,-5.9,-13.7,30.20,NNE,33,3.0,5.0,68,0.00,,,0.00,LWC V2.10 B1813,2013-02-20 08:05:00,
2013-02-19 23:10:00,-5.6,-13.7,30.19,NE,39,5.0,8.0,67,0.00,,,0.00,LWC V2.10 B1813,2013-02-20 08:10:00,
2013-02-19 23:15:00,-5.4,-13.5,30.19,NNE,13,4.0,7.0,67,0.00,,,0.00,LWC V2.10 B1813,2013-02-20 08:15:00,
2013-02-19 23:20:00,-5.3,-13.4,30.18,NNE,18,7.0,8.0,67,0.00,,,0.00,LWC V2.10 B1813,2013-02-20 08:20:00,
2013-02-19 23:25:00,-5.3,-13.4,30.18,NE,34,11.0,11.0,67,0.00,,,0.00,LWC V2.10 B1813,2013-02-20 08:25:00,
2013-02-19 23:30:00,-5.2,-13.3,30.18,North,9,3.0,10.0,67,0.00,,,0.00,LWC V2.10 B1813,2013-02-20 08:30:00,
2013-02-19 23:35:00,-5.0,-12.8,30.18,North,355,4.0,9.0,68,0.00,,,0.00,LWC V2.10 B1813,2013-02-20 08:35:00,
2013-02-19 23:40:00,-4.9,-13.0,30.18,North,9,5.0,11.0,67,0.00,,,0.00,LWC V2.10 B1813,2013-02-20 08:40:00,
2013-02-19 23:45:00,-4.8,-12.9,30.18,NNE,18,3.0,7.0,67,0.00,,,0.00,LWC V2.10 B1813,2013-02-20 08:45:00,
2013-02-19 23:50:00,-4.8,-12.9,30.17,NNW,338,2.0,9.0,67,0.00,,,0.00,LWC V2.10 B1813,2013-02-20 08:50:00,
2013-02-19 23:55:00,-4.8,-12.9,30.17,North,0,3.0,11.0,67,0.00,,,0.00,LWC V2.10 B1813,2013-02-20 08:55:00,